Tracking 21094 objects as of 11-Aug-2020
HD Live streaming from Space Station
objects crossing your sky now
Track the most recent launched group of Starlink satellites

OPS 7033 (VELA 11)

Track OPS 7033 (VELA 11) now!
OPS 7033 (VELA 11) is classified as:


NORAD ID: 4368
Int'l Code: 1970-027B
Perigee: 9,663.6 km
Apogee: 213,043.6 km
Inclination: 51.9 °
Period: 6,699.8 minutes
Semi major axis: 117724 km
RCS: Unknown
Launch date: April 8, 1970
Source: United States (US)
Launch site: AIR FORCE EASTERN TEST RANGE (AFETR)
aabbcc
Your satellite tracking list
Your tracking list is empty




NASA's NSSDC Master Catalog

Two Line Element Set (TLE):
1  4368U 70027B   20084.08870954 -.00000575  00000-0  00000+0 0  9999
2  4368  51.9311  88.3030 8637959 126.5774   0.0505  0.21493256 32786
Source of the keplerian elements: AFSPC